Theta_e
319 319 319 319 320 320 320 321 322 324 323 322 321 322 324 323 320 316 305 311 313 328 330 316 312 312 312 309 310 309 299 295 295 296 299 304 304 308 309 308 309 311 310 311 316
319 319 319 319 318 319 319 319 319 321 322 322 321 323 323 322 312 306 316 318 322 330 315 309 306 310 306 306 308 303 298 297 301 301 301 303 303 304 305 305 306 308 310 312 316
318 318 318 318 318 318 318 318 319 319 320 320 323 323 323 320 304 303 320 323 327 326 314 312 309 307 303 306 305 303 298 301 300 301 302 303 303 305 303 302 305 305 308 311 313
317 317 317 317 317 317 318 318 318 318 319 320 323 323 322 312 294 306 328 326 332 315 310 308 307 303 301 299 304 299 302 301 302 302 302 301 304 303 303 304 306 306 309 311 311
316 316 315 315 316 316 317 317 317 317 318 321 323 323 314 302 301 319 332 332 315 311 308 306 303 303 298 300 301 300 300 302 303 303 303 302 302 302 300 303 304 304 304 304 305
315 315 314 314 314 316 316 316 317 317 317 322 322 322 306 296 308 327 324 321 311 309 308 308 304 305 301 300 299 301 301 301 302 302 301 300 300 302 300 303 299 299 298 297 297
314 314 313 313 314 314 316 318 317 317 317 322 322 311 302 300 315 322 318 315 312 310 306 308 308 304 304 299 301 300 297 300 299 299 299 302 297 295 301 299 296 295 295 295 295
313 313 313 312 313 313 316 319 319 318 319 322 321 310 298 308 315 314 312 310 311 309 309 309 309 305 303 302 299 297 296 294 296 298 299 300 292 294 298 296 293 292 292 292 292
312 312 312 312 312 313 316 318 320 321 322 322 310 305 297 313 309 315 310 307 307 306 307 307 307 302 301 298 295 295 292 292 293 299 298 297 293 293 294 292 290 290 289 289 288
311 311 311 311 311 312 315 319 321 320 318 313 306 298 300 300 304 308 306 309 304 305 303 303 302 298 297 295 289 291 290 291 292 297 298 297 291 291 291 290 288 287 286 285 284
310 310 310 310 311 312 315 314 305 302 305 300 300 299 301 302 305 303 306 304 303 302 296 298 295 292 295 296 294 293 291 291 293 296 295 295 290 287 288 287 285 284 282 282 282
309 309 310 311 312 312 314 306 305 306 298 302 302 301 302 304 298 301 305 300 299 294 296 294 292 297 296 296 293 293 291 292 294 294 294 294 286 285 285 283 282 281 280 280 281
309 309 310 311 312 312 309 307 311 309 298 298 302 302 303 303 298 299 302 300 296 293 294 293 294 295 294 292 291 292 291 292 292 293 294 294 288 284 283 283 283 282 281 280 279
308 308 310 311 306 310 306 311 312 309 291 292 298 301 301 303 297 302 303 300 296 294 294 294 295 293 293 292 293 290 295 293 292 291 289 295 288 285 282 281 280 280 280 279 278
308 309 310 310 307 306 309 313 311 304 281 294 297 306 301 298 298 298 303 300 294 293 294 292 292 292 292 293 295 292 294 293 292 291 291 291 289 281 284 281 278 278 278 278 278
308 309 310 308 308 310 313 312 305 288 282 292 297 296 296 297 297 298 299 302 299 295 294 294 296 296 295 295 295 295 294 293 292 291 285 291 290 281 280 275 277 278 278 278 277
308 309 309 310 306 304 312 305 289 282 292 290 292 295 294 293 294 294 292 291 291 288 289 292 292 295 296 293 294 294 292 286 284 283 283 287 287 276 275 275 275 275 276 276 277
308 309 309 299 300 308 305 294 282 287 289 295 293 294 291 292 291 291 291 289 290 290 290 288 285 292 294 293 291 292 292 286 279 280 284 287 285 273 276 277 277 276 276 276 276
308 306 298 297 306 310 299 287 286 289 291 292 291 290 289 290 291 290 289 288 287 289 288 287 287 291 292 291 292 290 288 291 287 286 284 285 272 275 276 275 275 274 275 274 274
307 301 294 297 306 305 296 287 286 287 290 292 288 289 287 287 288 289 288 286 286 286 291 286 285 287 287 292 292 290 290 286 288 279 277 282 280 275 273 272 273 273 272 273 273
304 293 294 298 304 299 290 287 285 286 290 290 288 286 286 285 286 285 284 282 284 284 286 283 284 283 285 283 283 286 286 286 287 284 280 278 277 274 272 271 271 271 272 272 272
297 288 295 298 291 289 287 286 285 283 287 285 286 286 283 281 283 283 281 280 283 282 280 282 281 277 278 281 283 282 279 280 282 279 279 279 274 272 272 271 271 270 271 271 272
290 288 295 296 288 283 283 280 282 282 281 282 280 282 283 279 279 282 280 281 282 281 279 281 277 274 276 281 282 277 276 278 279 278 276 276 273 269 270 269 270 270 270 270 269
287 284 288 288 285 284 281 280 278 282 280 281 280 281 279 277 280 278 278 280 282 283 286 283 277 274 273 275 278 274 273 274 275 273 274 275 267 266 266 267 268 268 268 268 267
287 281 282 280 281 282 282 281 278 277 281 281 279 279 278 275 275 276 277 277 280 281 280 281 274 275 276 276 275 271 270 269 272 267 271 266 266 263 263 264 265 266 266 266 266
285 283 283 281 280 280 280 277 277 277 279 277 278 278 278 276 276 275 276 276 276 279 277 278 273 274 270 273 272 268 266 269 268 264 262 261 263 262 264 265 266 266 265 264 264
287 286 285 280 279 279 277 278 278 280 280 280 279 278 277 278 280 280 281 280 279 277 276 276 274 271 268 271 271 267 264 265 265 265 264 267 262 264 264 264 264 263 263 263 263
Wind_Speed
12 12 11 10 9 7 5 6 6 6 7 8 7 7 5 4 3 6 9 6 8 13 13 12 8 9 5 5 3 2 5 5 3 4 2 2 3 2 1 1 1 1 3 5 8
12 12 12 12 10 9 6 6 7 5 5 7 8 7 5 5 5 12 11 8 9 18 15 16 13 13 6 6 5 6 5 5 1 1 1 3 1 2 2 1 2 3 4 5 8
12 12 11 12 12 10 7 6 6 7 7 7 6 6 6 6 4 6 4 16 15 17 11 10 14 11 7 6 6 5 4 3 1 4 5 3 1 2 3 3 6 11 8 2 4
14 14 14 13 12 10 7 5 6 7 7 7 6 7 7 4 3 2 9 16 16 14 14 11 13 10 8 9 7 6 6 5 1 2 1 2 4 5 6 13 14 12 12 11 9
16 16 16 16 14 12 9 5 6 8 8 8 8 9 6 5 7 6 6 15 15 14 14 12 15 10 11 8 6 9 6 5 7 6 6 2 7 5 16 17 21 23 25 23 20
16 16 16 16 16 15 11 6 6 8 9 8 9 9 4 6 3 3 10 13 11 10 12 11 11 8 6 5 10 4 6 7 6 6 4 5 6 1 16 14 23 23 23 22 23
16 16 15 15 15 14 13 7 7 8 10 9 11 5 3 3 2 6 8 5 8 5 7 7 6 9 8 7 3 3 5 6 5 3 5 8 12 13 10 14 21 21 19 20 22
16 16 15 15 15 14 13 9 7 8 9 9 9 3 5 2 2 6 6 5 5 4 1 4 4 4 2 5 4 4 4 4 3 2 3 7 11 12 13 14 19 19 18 19 23
17 16 15 14 14 13 13 2 6 7 8 9 6 4 2 3 4 6 3 8 7 4 4 4 1 2 4 5 5 4 3 4 3 1 4 3 14 10 12 14 17 18 19 19 20
17 16 15 14 12 12 11 1 10 10 6 3 1 3 3 3 4 7 2 9 4 9 6 4 2 6 6 9 6 6 5 3 2 4 3 12 12 11 14 16 17 18 19 20 21
18 17 15 14 11 8 2 4 5 4 5 4 3 1 4 4 3 3 5 6 5 5 7 4 9 11 13 13 1 4 2 4 2 3 4 7 11 12 13 17 18 18 18 19 19
18 17 16 13 11 7 4 4 2 3 4 5 1 2 1 2 5 5 6 7 7 8 7 5 14 9 4 8 8 7 8 11 3 4 8 8 11 12 14 17 17 17 18 19 20
19 17 16 13 9 3 6 3 0 2 2 3 3 3 3 5 3 11 9 4 4 7 12 10 2 5 8 7 10 10 12 9 6 5 3 5 9 7 11 15 16 17 15 18 19
19 16 14 11 3 5 4 4 3 1 4 5 4 3 4 4 3 2 2 2 3 9 8 7 4 5 7 6 10 10 11 11 7 6 6 10 3 7 9 12 16 16 16 17 18
18 14 12 6 1 4 3 4 4 2 4 4 5 4 3 4 9 4 3 1 6 6 6 3 6 7 6 5 11 0 3 7 5 7 3 10 6 8 9 6 13 14 15 16 16
16 12 6 3 2 2 1 4 2 4 6 4 3 6 5 3 3 4 2 6 2 3 1 1 1 1 1 2 6 9 6 5 3 3 7 11 12 8 2 6 9 11 14 15 16
15 9 2 1 2 3 3 3 5 6 1 5 3 4 6 3 4 3 4 5 1 6 8 3 2 2 1 4 4 6 7 4 5 6 6 1 8 10 7 8 9 10 12 14 15
8 3 1 2 3 4 2 3 6 3 1 2 3 7 4 2 3 3 6 5 7 2 2 5 5 0 4 2 1 10 8 5 6 5 2 5 5 7 9 8 8 9 10 12 14
1 2 1 5 2 2 3 6 2 1 2 4 4 4 3 3 3 4 4 4 4 5 3 4 4 2 4 4 3 6 6 3 5 1 4 5 6 6 7 6 7 8 10 12 13
1 1 2 7 3 2 2 4 3 3 2 2 5 2 6 4 5 4 5 2 4 6 4 2 3 3 4 2 9 3 3 4 3 5 8 5 6 7 8 3 5 8 10 11 13
2 2 4 4 2 2 2 4 5 5 2 3 2 4 4 4 3 3 4 4 4 3 5 1 3 4 1 9 6 3 1 2 3 3 5 6 5 4 6 4 4 6 8 10 13
1 2 4 1 3 3 3 3 3 4 8 5 4 5 3 3 4 4 4 5 6 2 3 4 3 2 4 6 6 4 3 3 5 5 1 4 5 4 5 4 4 5 7 9 11
2 2 2 2 3 4 4 5 6 4 6 4 4 5 4 4 4 4 5 2 8 3 3 1 0 3 3 3 2 5 4 3 3 2 5 5 4 3 3 4 4 6 7 9 10
1 2 4 5 3 5 6 4 5 5 5 5 4 1 3 4 7 5 5 3 4 4 8 1 2 2 2 5 4 4 3 4 3 1 2 4 5 6 5 6 8 7 8 7 8
5 3 2 3 6 7 4 3 5 3 4 5 4 7 3 4 3 4 3 4 6 5 4 3 3 1 2 3 3 4 2 0 4 2 5 3 3 4 3 6 8 8 8 7 9
3 2 3 4 3 5 5 2 5 5 4 3 6 7 7 5 4 5 5 2 3 5 3 2 4 2 2 5 3 4 3 4 4 3 2 1 2 1 5 5 7 7 6 6 9
3 1 1 5 3 1 2 3 5 7 6 6 8 9 11 8 6 7 8 8 5 2 3 2 5 3 3 4 4 4 3 3 3 4 4 4 5 6 6 10 10 9 5 5 10
Wind_Direction
356 355 355 348 337 317 287 272 272 247 241 246 240 243 241 231 184 204 234 223 179 159 145 145 153 145 166 155 156 184 233 221 216 204 62 114 221 139 30 177 194 164 340 68 121
354 355 352 345 341 324 299 262 247 264 250 244 235 230 216 189 226 245 237 209 185 154 160 165 159 158 165 174 169 219 235 202 24 272 3 34 323 359 247 142 191 229 137 116 151
355 356 354 351 348 335 304 265 239 231 235 234 231 214 190 175 254 237 172 200 177 168 174 177 153 166 176 181 181 177 234 196 202 240 286 325 296 349 328 313 358 351 15 131 177
354 356 355 358 351 343 319 276 239 222 224 224 214 199 167 182 239 66 283 185 172 164 152 153 167 175 186 194 179 214 234 238 256 154 188 299 326 321 351 1 2 26 33 32 36
353 355 352 353 352 345 334 297 238 217 213 214 200 176 173 206 257 7 118 151 140 160 165 169 177 181 192 195 161 228 237 217 241 247 255 278 275 8 48 50 54 55 50 45 40
351 352 349 348 347 343 332 303 240 210 206 204 187 167 214 228 24 102 124 139 153 160 165 175 194 191 163 184 206 171 231 252 261 248 209 210 65 173 40 48 56 52 50 45 39
346 346 345 343 341 341 330 299 233 206 200 193 178 195 209 253 42 131 133 151 154 149 167 185 179 190 151 162 167 178 257 248 224 223 189 168 70 57 24 48 54 49 46 43 35
341 340 340 339 339 338 332 308 213 195 193 182 171 211 250 13 150 153 143 104 120 88 229 156 182 150 239 120 142 218 241 230 111 154 87 211 119 39 26 49 51 45 39 36 33
337 335 335 336 337 337 340 59 155 164 162 155 164 234 229 150 162 159 176 142 128 96 80 114 167 131 157 204 211 200 221 203 154 91 131 250 117 55 40 52 51 42 37 32 27
333 331 330 330 333 334 343 137 125 127 133 177 116 222 182 174 139 137 91 140 129 131 116 154 163 201 190 199 226 188 198 207 189 126 157 106 105 68 48 57 51 43 36 32 28
331 328 325 323 324 323 321 148 159 152 221 218 182 336 117 94 144 125 149 123 128 167 178 151 211 213 208 216 211 118 168 227 151 141 314 50 95 58 49 53 49 44 37 32 27
329 325 321 317 313 297 210 224 264 20 187 222 160 274 228 194 116 147 173 165 168 183 145 172 236 227 200 194 209 222 245 246 261 254 220 140 98 75 60 61 53 43 36 27 20
327 323 317 314 309 200 208 224 118 263 260 160 189 183 175 179 100 168 184 146 180 169 195 218 59 147 176 171 202 224 232 229 246 148 244 216 167 147 83 68 56 49 42 34 24
324 321 316 311 231 169 196 150 164 232 250 155 191 158 133 159 104 51 183 171 153 205 181 243 138 158 170 204 205 240 220 238 213 203 241 206 228 138 132 76 48 38 34 27 23
322 319 317 241 340 196 97 139 141 204 248 121 125 124 123 165 121 69 30 174 178 164 188 137 161 168 193 218 194 336 124 179 188 210 235 196 257 97 177 72 38 36 31 29 24
321 320 317 158 229 28 205 140 183 194 234 132 119 154 141 55 72 111 86 45 48 150 228 249 1 264 12 101 176 146 113 98 111 194 247 222 222 127 73 16 36 33 31 25 19
319 315 265 188 131 325 187 180 169 230 102 145 135 146 114 90 87 54 50 54 213 182 201 168 150 92 13 181 180 202 183 195 202 196 247 99 213 61 94 67 53 35 27 23 20
319 314 76 64 298 187 187 184 202 73 91 76 118 104 125 141 72 95 123 124 54 313 144 193 173 174 4 7 247 195 226 232 244 211 131 155 229 110 104 85 68 51 35 25 19
308 105 79 345 287 197 215 209 37 94 56 159 126 156 128 142 124 129 81 109 48 3 269 188 163 334 50 337 311 147 204 2 287 182 257 142 110 155 138 92 58 47 30 26 18
182 128 38 332 261 193 205 100 98 32 347 218 202 298 158 140 159 150 166 28 114 25 312 108 191 29 359 298 64 355 37 181 205 246 243 194 163 109 167 92 45 27 25 22 18
246 170 12 357 242 69 136 94 112 50 343 7 120 115 80 118 82 103 99 66 16 48 49 27 287 110 244 17 356 350 109 50 332 298 263 272 109 56 103 66 27 25 28 9 4
175 165 14 287 71 42 79 56 52 18 27 49 73 64 75 64 84 95 116 43 357 349 48 24 40 72 67 94 50 43 49 357 254 173 360 320 127 74 85 49 23 16 7 4 5
105 54 21 290 143 110 112 80 61 41 39 40 75 38 53 85 109 96 92 63 22 58 79 137 146 139 172 205 170 55 24 35 79 33 228 264 103 122 68 50 45 358 1 356 2
105 131 43 56 27 116 132 102 109 44 68 55 74 100 104 78 36 121 109 58 22 45 44 106 78 330 337 58 72 130 60 30 31 219 273 257 139 182 17 357 350 345 347 344 354
13 82 348 60 49 89 83 93 118 100 70 38 79 55 61 109 90 99 97 120 58 12 51 59 122 110 117 49 78 90 103 220 225 49 249 65 56 136 345 301 311 316 326 331 345
49 124 65 75 44 67 18 73 117 113 16 53 111 73 51 90 40 144 129 97 79 59 74 26 122 119 114 56 112 117 71 99 98 117 138 155 139 79 302 287 293 319 312 320 339
19 4 75 22 67 76 41 128 121 132 58 55 121 108 88 85 75 71 70 73 84 88 105 91 136 160 151 131 143 182 30 6 88 69 342 273 60 346 336 332 325 321 317 331 333